User: anonymous   Login
Location: Unspecified
(0.0000°N, 0.0000°E)
Time: 08:06:57
(UTC+00:00)
Language:

BUGSAT 1 - Orbit

View from above orbital plane
View from above orbital plane
View from above satellite
View from above satellite

Ground track
Ground track

The orbit data is extracted from the following two-line orbital elements,

1 40014U 14033E   19345.90123342 +.00000767 +00000-0 +74544-4 0  9994
2 40014 098.0378 297.5935 0031265 194.2921 165.7443 14.95367006298832
Epoch (UTC): 11 December 2019 21:37:46
Eccentricity: 0.0031265
inclination: 98.0378°
perigee height: 559 km
apogee height: 603 km
right ascension of ascending node: 297.5935°
argument of perigee: 194.2921°
revolutions per day: 14.95367006
mean anomaly at epoch: 165.7443°
orbit number at epoch: 29883

The dashed part of the orbit path shows where the satellite is in the earth's shadow,  

DLR